Printer-friendly version
Follow the MPC on Twitter Follow the MPC on Facebook The MPC blog
Minor Planet Center

MPEC 2000-P05 : 2000 OH8

The following Minor Planet Electronic Circular may be linked-to from your own Web pages, but must not otherwise be redistributed electronically.

A form allowing access to any MPEC is at the bottom of this page.


Read MPEC 2000-P04 Read MPEC 2000-P06


M.P.E.C. 2000-P05                                Issued 2000 Aug. 1, 15:52 UT

     The Minor Planet Electronic Circulars contain information on unusual
         minor planets and routine data on comets.  They are published
   on behalf of Commission 20 of the International Astronomical Union by the
          Minor Planet Center, Smithsonian Astrophysical Observatory,
                          Cambridge, MA 02138, U.S.A.

             Prepared using the Tamkin Foundation Computer Network

             BMARSDEN@CFA.HARVARD.EDU or GWILLIAMS@CFA.HARVARD.EDU
          URL http://cfa-www.harvard.edu/iau/mpc.html  ISSN 1523-6714

                                   2000 OH8

Observations:
     K00O08H  C2000 07 07.31451 19 39 37.87 -21 51 56.5          18.3        704
     K00O08H  C2000 07 07.32692 19 39 38.97 -21 51 31.7          18.5        704
     K00O08H  C2000 07 07.35168 19 39 41.05 -21 50 43.6          19.3        704
     K00O08H  C2000 07 07.36411 19 39 42.00 -21 50 19.6          18.6        704
     K00O08H* C2000 07 30.29079 20 19 07.16 -07 16 24.1          17.8        704
     K00O08H  C2000 07 30.30419 20 19 08.42 -07 15 53.6          18.4        704
     K00O08H  C2000 07 30.31751 20 19 09.66 -07 15 21.9          18.6        704
     K00O08H  C2000 07 30.34398 20 19 12.16 -07 14 19.3          17.9        704
     K00O08H  C2000 07 30.86145 20 20 09.75 -06 54 19.8          17.3 R      046
     K00O08H  C2000 07 30.86470 20 20 09.99 -06 54 13.3                      046
     K00O08H  C2000 07 30.86634 20 20 10.17 -06 54 08.6                      046
     K00O08H  C2000 07 30.86765 20 20 10.28 -06 54 06.1                      046
     K00O08H  C2000 07 30.86983 20 20 10.57 -06 54 02.5                      046
     K00O08H  C2000 07 30.87119 20 20 10.53 -06 53 58.5                      557
     K00O08H  C2000 07 30.87209 20 20 10.66 -06 53 55.2          17.5 R      046
     K00O08H  C2000 07 30.87517 20 20 10.98 -06 53 48.5                      557
     K00O08H  C2000 07 30.87715 20 20 11.13 -06 53 44.0                      557
     K00O08H  C2000 07 31.10346 20 20 34.83 -06 44 12.0          19.4 V      859
     K00O08H  C2000 07 31.10933 20 20 35.32 -06 43 59.2          18.7 V      859
     K00O08H 1C2000 07 31.31579 20 20 57.81 -06 36 45.2                      658
     K00O08H 1C2000 07 31.31692 20 20 57.91 -06 36 42.7                      658
     K00O08H 1C2000 07 31.31903 20 20 58.11 -06 36 37.7                      658
     K00O08H  C2000 07 31.39411 20 21 07.46 -06 32 41.4          18.3 R      474
     K00O08H  C2000 07 31.39748 20 21 07.87 -06 32 33.7          18.0 R      474
     K00O08H  C2000 07 31.40076 20 21 08.14 -06 32 26.4          18.0 R      474
     K00O08H  C2000 07 31.84838 20 21 56.19 -06 16 16.0                      557
     K00O08H  C2000 07 31.85432 20 21 56.70 -06 16 02.3                      557
     K00O08H  C2000 07 31.85630 20 21 56.90 -06 15 58.2                      557
     K00O08H  C2000 07 31.86059 20 21 57.33 -06 15 47.0                      118
     K00O08H  C2000 07 31.86569 20 21 57.87 -06 15 35.0                      118
     K00O08H  C2000 07 31.86943 20 21 58.18 -06 15 27.7          18.4 R      118
     K00O08H  C2000 07 31.88825 20 22 00.13 -06 14 43.9          18.9 V      595
     K00O08H  C2000 07 31.89163 20 22 00.44 -06 14 35.0          18.0        106
     K00O08H  C2000 07 31.89399 20 22 00.75 -06 14 32.1                      611
     K00O08H  C2000 07 31.89569 20 22 00.84 -06 14 25.3                      595
     K00O08H  C2000 07 31.89701 20 22 01.11 -06 14 24.7                      611
     K00O08H  C2000 07 31.89986 20 22 01.35 -06 14 18.7                      611
     K00O08H  C2000 07 31.90416 20 22 01.78 -06 14 08.9                      611
     K00O08H  C2000 07 31.90759 20 22 01.96 -06 13 58.7                      595
     K00O08H  C2000 07 31.91111 20 22 02.50 -06 13 49.7                      587
     K00O08H  C2000 07 31.91368 20 22 02.57 -06 13 44.4          18.3        106
     K00O08H IC2000 07 31.91447 20 22 02.84 -06 13 43.1                      587
     K00O08H  C2000 07 31.91484 20 22 02.64 -06 13 42.6                      595
     K00O08H  C2000 08 01.21653 20 22 35.39 -06 02 06.5                      739
     K00O08H tC2000 08 01.22795 20 22 35.37 -06 00 54.1                      808
     K00O08H  C2000 08 01.22957 20 22 36.49 -06 01 35.4          19.5 V      739
     K00O08H  C2000 08 01.23398 20 22 36.84 -06 01 24.7                      739
     K00O08H tC2000 08 01.23767 20 22 36.26 -06 00 31.9                      808
     K00O08H  C2000 08 01.30042 20 22 43.49 -05 58 49.7                      711
     K00O08H  C2000 08 01.30609 20 22 44.02 -05 58 37.3                      711
     K00O08H  C2000 08 01.31080 20 22 44.46 -05 58 27.1                      711

Observer details:
046 Klet.  Observers J. Ticha, M. Tichy.  0.57-m f/5.2 reflector + CCD.
106 Crni Vrh.  Observer J. Skvarc.  0.36-m f/6.7 Schmidt-Cassegrain + CCD.
118 Modra.  Observers A. Galad, P. Koleny.  0.6-m f/5.5 reflector + CCD.
474 Mount John Observatory, Lake Tekapo.  Observers I. P. Griffin, N. Brady,
    R. Greatrex.  1.0-m f/7.7 reflector + CCD.
557 Ondrejov.  Observer L. Sarounova.  0.65-m f/3.6 reflector + CCD.
587 Sormano.  Observer F. Manca.  0.5-m reflector + CCD.
595 Farra d'Isonzo.  Observers G. Lombardi, A. Toso, E. Pettarin, M. Spolaor,
    F. Piani.  0.40-m f/4.5 reflector + CCD.
611 Starkenburg.  Observers M. Busch, R. Stoss.  0.45-m f/4.4 reflector + CCD.
658 National Research Council of Canada.  Observer D. D. Balam.  1.82-m
    Plaskett reflector + CCD.
704 Lincoln Laboratory ETS, New Mexico.  Observers M. Blythe, F. Shelly,
    M. Bezpalko, M. Elowitz, R. Huber, L. Manguso.  Measurers J. Stuart,
    R. Sayer, J. B. Evans, H. Viggh.  1.0-m f/2.15 reflector + CCD.
711 McDonald Observatory.  Observers P. J. Shelus, J. G. Ries.  0.76-m
    reflector + CCD.
739 Sunflower Observatory, Olathe.  Observer L. Robinson.  0.25-m
    Schmidt-Cassegrain + CCD.
808 El Leoncito.  Observers C. E. Lopez, H. S. Lepez.  0.5-m f/7.5 double
    astrograph + CCD.
859 Wykrota Observatory-CEAMIG.  Observers C. Jacques, L. Duczmal, D. Weaver,
    J. Diniz.  0.3-m f/3.3 Schmidt-Cassegrain + CCD.

Orbital elements:
2000 OH8
Epoch 2000 July 15.0 TT = JDT 2451740.5                 Williams
M 354.99111              (2000.0)            P               Q
n   0.26112049     Peri.   23.10365     +0.64996172     +0.75352364
a   2.4242389      Node   287.58697     -0.71242741     +0.55890055
e   0.4995062      Incl.    5.94615     -0.26456937     +0.34616801
P   3.77           H   20.8           G   0.15
From 51 observations 2000 July 7-Aug. 1.

Ephemeris:
2000 OH8                 a,e,i = 2.42, 0.50, 6                   q = 1.2133
Date    TT    R. A. (2000) Decl.     Delta      r     Elong.  Phase     V
2000 07 25    20 09.70   -10 46.6    0.204    1.218   170.9     7.6    18.3
2000 07 30    20 18.60   -07 27.4    0.203    1.214   168.0    10.0    18.4
2000 08 04    20 27.61   -04 17.7    0.204    1.213   165.1    12.4    18.5
2000 08 09    20 36.70   -01 24.6    0.209    1.215   162.5    14.5    18.6
2000 08 14    20 45.82   +01 07.0    0.217    1.219   160.2    16.3    18.8
2000 08 19    20 54.89   +03 14.4    0.227    1.226   158.3    17.8    19.0
2000 08 24    21 03.84   +04 56.8    0.240    1.235   156.5    19.0    19.1
2000 08 29    21 12.66   +06 15.4    0.255    1.246   155.0    20.0    19.3
2000 09 03    21 21.39   +07 12.4    0.273    1.260   153.6    20.8    19.5
2000 09 08    21 30.06   +07 51.4    0.294    1.275   152.3    21.6    19.7
2000 09 13    21 38.66   +08 15.6    0.317    1.293   150.9    22.3    19.9

2000 09 23    21 55.68   +08 32.6    0.372    1.333   147.7    23.7    20.4
2000 10 03    22 12.61   +08 25.7    0.439    1.379   143.8    25.3    20.9
2000 10 13    22 29.64   +08 12.9    0.517    1.430   139.4    27.0    21.4
2000 10 23    22 46.75   +08 04.5    0.608    1.486   134.5    28.5    21.8
2000 11 02    23 03.97   +08 06.1    0.712    1.544   129.2    29.9    22.3

Gareth V. Williams           (C) Copyright 2000 MPC           M.P.E.C. 2000-P05

Read MPEC 2000-P04 Read MPEC 2000-P06


MPEC number:

Enter an MPEC number in one of the following forms:

  • 1997-B01 (the full form)
  • J97B01 (the packed version of the full form)
  • B01 (the abbreviated form)

Valid HTML 4.01!